Location: *
(12.5665°N, 8.3471°E)
Time: 01:38:52
(UTC+00:00)

Lacrosse 5 rocket - Pass Details

Date: 23 September 2019
Orbit: 459 x 639 km, 57.0° (Epoch: 13 October)

Event Time Altitude Azimuth Distance (km) Brightness Sun altitude
Exits shadow 03:02:07 24° 105° (ESE) 1,290 3.7 -33.3°
Drops below altitude 10° 03:04:20 10° 124° (SE) 2,000 4.7 -32.8°
Sets 03:06:48 0° 133° (SE) 2,919 5.5 -32.2°
